Regional Weather Roundup
Issued by NWS Portland, ME

Current Version | Previous Version | Graphics & Text | Print | Product List | Glossary On
Versions: 1 2 3 4 5 6 7 8 9 10 11 12 13 14 15 16 17 18 19 20 21 22 23 24 25 26 27 28 29 30 31 32 33 34 35 36 37 38 39 40 41 42 43 44 45 46 47 48 49 50
000
ASUS41 KGYX 230610
RWRGYX
WEATHER ROUNDUP FOR MAINE AND NEW HAMPSHIRE
NATIONAL WEATHER SERVICE GRAY ME
100 AM EST SUN NOV 23 2014

MEZ002-005-006-010-012-015-018-020-021-024-026-027-029-230700-
MAINE

CITY           SKY/WX    TMP DP  RH WIND       PRES   REMARKS
PORTLAND       CLOUDY    41  17  38 SW9       29.97S
6HR MIN TEMP:  37; 6HR MAX TEMP:  41;

SANFORD        PTCLDY    37  16  41 S5        29.99S
BAR HARBOR     PTCLDY    39  21  48 W7        29.92S
WISCASSET      MOCLDY    39  20  46 CALM      29.97S
6HR MIN TEMP:  38; 6HR MAX TEMP:  41;

ROCKLAND       MOCLDY    39  21  48 W7        29.95S
FRYEBURG       CLOUDY    42  28  57 SW8       29.93S
6HR MIN TEMP:  35; 6HR MAX TEMP:  42;

LEWISTONAUBURN CLOUDY    30  18  59 CALM      29.94R
AUGUSTA        CLOUDY    34  14  43 S5        29.93S
6HR MIN TEMP:  31; 6HR MAX TEMP:  35;

WATERVILLE     CLOUDY    36  14  41 SW5       29.90R
BANGOR         MOCLDY    35  15  44 SW7       29.91F
6HR MIN TEMP:  30; 6HR MAX TEMP:  36;

GREENVILLE       N/A     33  25  72 VRB3      29.80S
6HR MIN TEMP:  23; 6HR MAX TEMP:  33;

MILLINOCKET    CLOUDY    32  18  56 VRB3      29.87R
6HR MIN TEMP:  29; 6HR MAX TEMP:  32;

HOULTON        CLOUDY    30  18  60 SW8       29.81S
6HR MIN TEMP:  28; 6HR MAX TEMP:  30; 6HR PCP: TRACE;

PRESQUE ISLE   CLOUDY    34  23  64 S7        29.77S
6HR MIN TEMP:  28; 6HR MAX TEMP:  34;

FRENCHVILLE    CLOUDY    29  25  85 W12       29.72S WCI  19
6HR MIN TEMP:  24; 6HR MAX TEMP:  29; 6HR PCP: TRACE;

CARIBOU        CLOUDY    31  25  78 S6        29.76F
6HR MIN TEMP:  25; 6HR MAX TEMP:  32; 6HR PCP: TRACE;

$$

NHZ002-005-008-009-011-012-014-230700-
NEW HAMPSHIRE

CITY           SKY/WX    TMP DP  RH WIND       PRES   REMARKS
PORTSMOUTH     CLOUDY    38  19  44 SW8       30.00S
ROCHESTER      MOCLDY    36  17  46 CALM      29.99F
6HR MIN TEMP:  36; 6HR MAX TEMP:  39;

NASHUA         PTCLDY    40  20  45 CALM      30.05S
MANCHESTER     MOCLDY    39  20  46 SW7       30.01S
6HR MIN TEMP:  39; 6HR MAX TEMP:  40;

CONCORD        MOCLDY    34  19  54 S3        30.01R
6HR MIN TEMP:  32; 6HR MAX TEMP:  39;

LACONIA        CLOUDY    39  21  48 SW12      29.96R
PLYMOUTH       CLOUDY    33  27  77 E3        29.97S
BERLIN         CLOUDY    36  29  75 N3        29.90S
6HR MIN TEMP:  34; 6HR MAX TEMP:  38; 6HR PCP: TRACE;

WHITEFIELD     CLOUDY    38  29  70 CALM      29.92F
6HR MIN TEMP:  37; 6HR MAX TEMP:  40;

JAFFREY        CLOUDY    36  20  52 SW7       30.03S
6HR MIN TEMP:  36; 6HR MAX TEMP:  37;

LEBANON        CLOUDY    42  30  62 SW8       29.99R
6HR MIN TEMP:  37; 6HR MAX TEMP:  42;

MT WASHINGTON  FOG       21  21 100 NW59        N/A  VSB 0   WCI  -2
6HR MIN TEMP:  18; 6HR MAX TEMP:  24; 6HR PCP:  0.02;

$$

VTZ005-007-008-230700-
VERMONT

CITY           SKY/WX    TMP DP  RH WIND       PRES   REMARKS
ST JOHNSBURY     N/A     39  27  62 MISG      29.92S
MONTPELIER     CLOUDY    43  35  73 SW12G18   29.96S
BURLINGTON     CLOUDY    41  27  57 S16       29.96R
$$

MAZ007-012-024-CTZ003-RIZ002-NYZ038-NYZ072-230700-
SOUTHERN NEW ENGLAND AND NY

CITY           SKY/WX    TMP DP  RH WIND       PRES   REMARKS
BOSTON         CLOUDY    43  22  43 SW14      30.06S
WORCESTER      MOCLDY    38  20  48 W22G30    30.04S
NANTUCKET      CLOUDY    52  42  69 SW28G38   30.13F
PROVIDENCE     CLOUDY    43  25  49 SW14      30.12S
HARTFORD       CLOUDY    44  19  36 S10       30.10F
ALBANY         LGT RAIN  37  29  72 S9        30.09S
NEW YORK CITY  CLOUDY    45  21  38 SW12G18   30.19F
$$

ANZ081-ANZ082-ANZ150-NHZ014-MEZ023>029-230700-
COASTAL MARINE OBSERVATIONS

STATION/POSITION TIME  TEMP    WIND        PRES    WAVE
                       AIR SEA DIR/SP/G            HT/PER
                 (UTC) (F)     (DEG/KT/KT) (MB)    (FT/S)
MOUNT DESERT ROC 0600   46                 1012.8R
MATINICUS ROCK   0600          250/ 34/ 37 1013.6R
PORTLAND WX BUOY 0550   44 50  230/ 23/ 27 1014.2R   6/ 8
WELLS            0500   39 45  230/  8/ 11 1015.2S
ISLE OF SHOALS   0600   43     230/ 21/ 23 1015.7S
JEFFREYS LEDGE   0521      51                N/A     7/ 6
CASHES LEDGE BUO 0550   47 51  250/ 27/ 33 1014.5S  13/ 8
$$

.............KEY..............
   WCI - WIND CHILL
   TC  - TEMPERATURE IN CELSIUS
   VSB - VISIBILITY IN MILES
   HX  - HEAT INDEX
   FAIR- INDICATES FEW OR NO CLOUDS BELOW 12,000 FT, WITH NO
         SIGNIFICANT WEATHER AND/OR OBSTRUCTIONS TO VISIBILITY.




USA.gov is the U.S. government's official web portal to all federal, state and local government web resources and services.